Regional Weather Roundup
Issued by NWS

Home | Current Version | Previous Version | Text Only | Print | Product List | Glossary On
Versions: 1 2 3 4 5 6 7 8 9 10 11 12 13 14 15 16 17 18 19 20 21 22 23 24 25 26 27 28 29 30 31 32 33 34 35 36 37 38 39 40 41 42 43 44 45 46 47 48 49 50
000
ASUS45 KPSR 241410
RWRAZ

ARIZONA HOURLY REGIONAL WEATHER ROUNDUP
NATIONAL WEATHER SERVICE PHOENIX AZ
700 AM MST TUE MAY 24 2016

NOTE: FAIR INDICATES FEW OR NO CLOUDS BELOW 12,000 FEET WITH NO
SIGNIFICANT WEATHER AND/OR OBSTRUCTIONS TO VISIBILITY.

AZZ001>003-036-241500-
NORTHWEST ARIZONA

CITY           SKY/WX    TMP DP  RH WIND       PRES   REMARKS
BULLHEAD CITY  SUNNY     72  37  28 S8        29.80R
KINGMAN        SUNNY     62  34  35 VRB5      29.85R
$$

AZZ004>008-015-016-018-241500-
NORTH CENTRAL ARIZONA

CITY           SKY/WX    TMP DP  RH WIND       PRES   REMARKS
GRAND CANYON   MOSUNNY   48  23  37 CALM      29.99R
WILLIAMS       SUNNY     50  21  32 S14       30.06R
PRESCOTT       SUNNY     54  27  35 CALM      29.96R
FLAGSTAFF      SUNNY     46  25  43 SW12      30.01R
PAYSON         SUNNY     52  21  30 CALM      30.02R
PAGE           MOSUNNY   63  23  21 S10       29.86R
$$

AZZ009>014-017-241500-
NORTHEAST ARIZONA

CITY           SKY/WX    TMP DP  RH WIND       PRES   REMARKS
WINSLOW        SUNNY     52  25  35 E5        29.97R
SAINT JOHNS    SUNNY     54  29  38 CALM      30.01R
WINDOW ROCK    SUNNY     50  21  32 CALM      30.05S
SHOW LOW       SUNNY     54  21  28 S15G24    30.02S
$$

AZZ023-241500-
GREATER PHOENIX AREA

CITY           SKY/WX    TMP DP  RH WIND       PRES   REMARKS
PHOENIX        SUNNY     69  35  28 E7        29.85R
BUCKEYE        SUNNY     72  32  23 CALM      29.88R
GLENDALE       SUNNY     72  32  23 CALM      29.87R
LUKE AFB       SUNNY     70  33  25 SW3       29.85R
DEER VALLEY    SUNNY     68  30  24 E5        29.86R
SCOTTSDALE     SUNNY     68  33  27 SE5       29.88R
MESA-FALCON    SUNNY    N/A N/A N/A E6        29.85R
MESA-GATEWAY   SUNNY     66  30  26 E6        29.88R
CHANDLER       SUNNY     68  34  28 NE6       29.87R
$$

AZZ027-028-241500-
SOUTHWEST MARICOPA COUNTY AND PINAL COUNTY

CITY           SKY/WX    TMP DP  RH WIND       PRES   REMARKS
CASA GRANDE    SUNNY     68  30  24 S5        29.89R
GILA BEND      SUNNY     70  31  24 S7        29.85R
$$

AZZ503-504-507>509-241500-
SOUTHEAST ARIZONA

CITY           SKY/WX    TMP DP  RH WIND       PRES   REMARKS
TUCSON         SUNNY     66  27  23 CALM      29.94R
DAVIS-MONTHAN  SUNNY     68  27  21 SW1       29.93R
RYAN FIELD     SUNNY     63  23  22 NW5       29.94R
NOGALES        SUNNY     65  27  23 S7        29.98R
SIERRA VISTA   SUNNY     67  14  13 S13       30.02R
DOUGLAS        SUNNY     84  30  14 S5        30.02R
SAFFORD        SUNNY     63  24  22 SE3       29.92R
$$

AZZ020-021-025-026-031-241500-
SOUTHWEST ARIZONA

CITY           SKY/WX    TMP DP  RH WIND       PRES   REMARKS
YUMA           SUNNY     63  40  42 NW6       29.87R
$$

CAZ031-033-041-043-047-048-061-241500-
SOUTHERN CALIFORNIA

CITY           SKY/WX    TMP DP  RH WIND       PRES   REMARKS
DOWNTOWN L.A.  MOSUNNY   61  52  72 CALM      29.95R
L.A. AIRPORT   PTSUNNY   59  52  77 NE6       29.95R
SAN DIEGO      PTSUNNY   63  48  58 W9        29.99R
BURBANK        CLOUDY    57  48  72 SE3       29.94R
ONTARIO        PTSUNNY   57  48  72 W6        29.95R
RIVERSIDE      PTSUNNY   58  47  66 CALM      29.95R
PALM SPRINGS   MOSUNNY   64  39  39 W14G21    29.85R
EL CENTRO NAS  MOSUNNY   65  42  43 W22       29.89R
IMPERIAL       SUNNY     64  43  46 W23G30    29.84R
BLYTHE         SUNNY     67  46  47 E3        29.82R
NEEDLES        SUNNY     72  38  29 SW5       29.79R
$$

NVZ020-UTZ003-241500-
SOUTHERN NEVADA-UTAH

CITY           SKY/WX    TMP DP  RH WIND       PRES   REMARKS
LAS VEGAS      MOSUNNY   64  35  34 SW10      29.75R
SALT LAKE CITY PTSUNNY   56  40  55 SW10      29.80R
$$

NMZ009-TXZ055-241500-
NEW MEXICO-WEST TEXAS

CITY           SKY/WX    TMP DP  RH WIND       PRES   REMARKS
ALBUQUERQUE    SUNNY     62  23  22 CALM      30.02R
EL PASO        MOSUNNY   72  23  16 S6        29.99R
$$


........................KEY........................
SKY/WX - SKY CONDITION/WEATHER
TMP    - TEMPERATURE IN FAHRENHEIT
DP     - DEW POINT IN FAHRENHEIT
RH     - RELATIVE HUMIDITY IN PERCENT
WIND   - DIRECTION AND SPEED IN MILES PER HOUR (MPH)
VRB    - VARIABLE WIND DIRECTION
PRES   - MEAN SEA LEVEL PRESSURE IN INCHES OF MERCURY
         F - FALLING PRESSURE   R - RISING PRESSURE
         S - STEADY PRESSURE
VSB    - VISIBILITY IN MILES
HX     - HEAT INDEX IN FAHRENHEIT
WCI    - WIND CHILL INDEX IN FAHRENHEIT
TC     - TEMPERATURE IN CELSIUS WHICH IS ALSO KNOWN AS
         TEMPERATURE IN CENTIGRADE
AFB    - AIR FORCE BASE
         LUKE AFB IS LUKE AIR FORCE BASE
         DAVIS-MONTHAN IS DAVIS-MONTHAN AIR FORCE BASE
NAS    - NAVAL AIR STATION
         EL CENTRO NAS IS EL CENTRO NAVAL AIR STATION
N/A    - NOT AVAILABLE




USA.gov is the U.S. government's official web portal to all federal, state and local government web resources and services.